Location: Alaska Mine
(37.9342°N, 107.6312°W)
Time: 18:12:42
(UTC+00:00)

Daily predictions for brighter satellites

Satellite Brightness Start Highest point End
(mag) Time Altitude Azimuth Time Altitude Azimuth Time Altitude Azimuth
CZ-4B R/B 3.2 12:04:42 10° SE 12:07:31 30° ENE 12:10:18 10° N
USA 234 4.4 12:03:41 10° S 12:07:45 21° SW 12:07:45 21° SW
SJ-12 4.1 12:05:41 10° NNE 12:09:44 71° ESE 12:13:46 10° S
METEOR-M 4.1 12:05:30 10° N 12:10:45 59° WNW 12:15:58 10° SSW
FENGYUN 3A 4.0 12:06:06 10° N 12:11:12 43° WNW 12:14:03 24° SW
CENTAUR R/B 4.2 12:04:21 10° NNW 12:12:12 46° NE 12:20:38 10° ESE
GENESIS II 4.2 12:10:43 24° SSW 12:13:03 83° ESE 12:17:03 10° NNE
Cosmos 883 Rocket 4.5 12:07:28 10° SSW 12:13:31 57° W 12:19:33 10° N
Cosmos 1933 3.9 12:11:04 10° S 12:14:59 58° E 12:18:58 10° NNE
Cosmos 2251 Rocket 3.4 12:10:41 10° SSW 12:15:59 76° WNW 12:21:22 10° NNE
Cosmos 2315 Rocket 3.9 12:13:47 10° SSW 12:19:55 62° W 12:26:04 10° N
Cosmos 2360 Rocket 2.1 12:17:27 10° NNW 12:23:09 78° WSW 12:28:47 10° SSE
ATLAS CENTAUR R/B 3.7 12:26:16 11° SW 12:26:16 11° SW 12:26:35 10° SSW
COSMOS 2487 2.3 12:24:07 19° SSW 12:26:22 60° WNW 12:29:45 10° N
CZ-4B R/B 3.4 12:25:44 10° NNE 12:30:13 71° E 12:34:43 10° S
ATLAS 2AS CENTAUR R/B 4.3 12:23:18 10° S 12:30:34 43° ESE 12:37:53 10° NE
Cosmos 2333 Rocket 3.0 12:26:34 10° NNW 12:32:14 54° ENE 12:37:52 10° SE
COSMO-SKYMED 1 2.5 12:28:32 10° SSE 12:32:52 87° WSW 12:37:14 10° NNW
Cosmos 1606 3.6 12:34:32 17° SW 12:36:48 29° WNW 12:40:13 10° NNW
SeaSat 1 2.5 12:32:20 10° S 12:37:09 56° WSW 12:42:01 10° NW
Cosmos 1805 Rocket 3.7 12:33:32 10° NNW 12:37:53 53° W 12:42:12 10° S
Cosmos 1743 Rocket 4.5 12:34:21 10° NNW 12:38:06 27° W 12:41:50 10° SW
OAO 3 Rocket 3.9 12:43:13 12° WSW 12:47:26 48° SSE 12:52:02 10° E
Iridium 51 4.1 12:44:37 10° N 12:48:31 70° W 12:52:06 10° S
Cosmos 1602 4.4 12:45:38 10° N 12:49:31 59° E 12:53:22 10° SSE
Lacrosse 5 3.1 12:45:21 10° NNW 12:50:07 39° NE 12:54:51 10° ESE
Cosmos 2322 Rocket 3.3 12:48:14 10° NW 12:52:33 23° W 12:56:52 10° SSW
Meteor PRIRODA 3.6 12:48:56 10° N 12:52:36 62° WNW 12:56:17 10° SSW
Cosmos 2074 Rocket 4.1 12:49:20 10° N 12:55:35 88° E 13:01:47 10° S
Cosmos 407 Rocket 3.5 12:50:23 10° SSW 12:55:36 89° ENE 13:00:48 10° NNE
Cosmos 909 Rocket 4.2 12:49:56 10° SW 12:56:45 58° WNW 13:02:56 10° NNE
Cosmos 2297 Rocket 4.3 12:51:52 10° SSE 12:56:46 31° ESE 13:01:40 10° NE
deb Chang Zheng 4 3.5 12:53:03 10° N 12:57:17 62° WNW 13:01:31 10° SSW
Meteor 1-25 Rocket 4.1 12:52:27 10° NNW 12:58:01 75° W 13:03:32 10° S
USA 276 2.7 12:56:47 12° WSW 12:59:31 42° NNW 13:02:35 10° NE
Cosmos 1666 Rocket 3.5 12:56:27 10° NNW 13:00:46 67° W 13:05:06 10° S
Cosmos 1190 Rocket 4.3 12:56:08 10° S 13:01:25 77° ESE 13:06:44 10° NNE
COSMOS 2428 3.1 12:56:31 10° NNW 13:02:14 70° ENE 13:07:55 10° SSE
SAR-Lupe-4 4.2 12:59:30 10° SSE 13:03:01 61° ENE 13:06:33 10° N
USA 238 DEB 4.0 12:55:49 10° NNW 13:03:12 86° WSW 13:10:50 10° SSE
USA 238 4.0 12:55:55 10° NNW 13:03:17 87° WSW 13:10:55 10° SSE
ASTRO E2 4.4 13:02:08 10° WSW 13:05:09 21° SSW 13:08:10 10° SE
Meteor 1-31 Rocket 4.2 13:03:27 10° NNW 13:06:09 18° WNW 13:08:49 10° WSW
Delta 2 Rocket 4.2 13:01:25 10° WSW 13:06:29 68° S 13:12:01 10° E
Sich 1 3.8 13:05:00 10° NNW 13:08:53 31° W 13:12:45 10° SSW
Cosmos 2219 Rocket 2.2 13:04:44 10° NNW 13:10:25 85° WSW 13:16:06 10° SSE
Milstar 3 Cent rocket 3.4 13:08:56 10° WSW 13:12:57 29° S 13:17:44 10° ESE
NOAA 6 4.3 13:08:59 10° NNE 13:14:09 76° ESE 13:19:16 10° S
MOS 1 Rocket 4.0 13:12:00 10° SSW 13:15:36 26° W 13:19:19 10° NW
CZ-4C R/B 2.1 13:10:57 10° SW 13:15:37 58° NW 13:21:11 10° NNE
Cosmos 2184 Rocket 4.1 13:09:42 10° NNW 13:15:58 67° W 13:22:15 10° S
Lacrosse 4 Rocket 2.1 13:12:11 10° NW 13:16:17 37° WSW 13:20:17 10° S
